Location: �bnet
(46.9957°N, 8.4908°E)
Time: 03:41:56
(UTC+00:00)

Cosmos 1937 Rocket - Pass Details

Date: 11 May 2021
Orbit: 745 x 781 km, 74.0° (Epoch: 23 June)

Event Time Altitude Azimuth Distance (km) Brightness Sun altitude
Exits shadow 22:09:37 59° 177° (S) 862 3.4 -22.9°
Maximum altitude 22:10:32 77° 110° (ESE) 773 3.3 -22.9°
Drops below altitude 10° 22:15:43 10° 25° (NNE) 2,287 6.6 -23.2°
Sets 22:18:06 0° 24° (NNE) 3,221 7.5 -23.3°
